Location: Araquey
(29.9464°N, 81.3373°W)
Time: 03:59:06
(UTC+00:00)

Tiangong - Pass Details

Date: 24 September 2021
Orbit: 382 x 385 km, 41.5° (Epoch: 18 October)

Event Time Altitude Azimuth Distance (km) Brightness Sun altitude
Exits shadow 10:35:46 13° 248° (WSW) 1,249 3.0 -9.3°
Maximum altitude 10:38:32 64° 330° (NNW) 423 1.1 -8.7°
Drops below altitude 10° 10:41:39 10° 53° (NE) 1,392 4.9 -8.0°
Sets 10:43:44 0° 56° (ENE) 2,246 6.1 -7.6°
